Погода в Тойде 1-ой

Россия / Воронежская область     51°32′52″N   40°08′15″E
темп.,
°C
ветер,
м/с
пор.,
м/с
влажн.,
%
обл.,
%
осадки,
мм/ч
давл.,
гПа
погр.,
м
20 января, чт
чт2000:00−21ссз2210081 0.0 101919
03:00−22сз2210099 0.0 10209
06:00−21зюз2210082 0.0 101912
09:00−20ююз3410098 0.0 101957
12:00−13ююз479415 0.0 1019157
15:00−11ююз49935 0.0 1017238
18:00−14ю4119613 0.0 1016157
21:00−14ю514946 0.0 1016223
21 января, пт
пт2100:00−13ю6159499 0.0 1015269
03:00−10ю61491100 0.0 1013336
06:00−8ююв71691100 0.1 1010417
09:00−6ююв81995100 1.9 1007586
12:00−4ююв91795100 2.2 1005672
15:00−2ю81594100 2.6 1003674
18:00−2юз81395100 2.1 1003820
21:00−5юз71389100 2.7 1006567
22 января, сб
сб2200:00−8ююз6149499 0.0 1008354
03:00−7ю61294100 0.1 1009539
06:00−8ю61295100 0.1 1009358
09:00−11ю5129665 0.1 1012226
12:00−8ю5119472 0.0 1013348
15:00−7ююв379438 0.0 1013228
18:00−12юв3698100 0.0 101563
21:00−12ююв2298100 0.0 101730
23 января, вс
вс2300:00−16ююв2210079 0.0 10189
03:00−18ююв11100100 0.0 10199
06:00−18вюв11100100 0.0 10209
09:00−13всв22100100 0.1 102244
12:00−7св3494100 0.0 1022171
15:00−6ссв4895100 0.0 1022292
18:00−6ссв51194100 0.0 1023312
21:00−4св61196100 0.6 1022487
24 января, пн
пн2400:00−4всв61196100 1.6 1022510
03:00−5в61196100 2.9 1022526
06:00−7в61194100 0.7 1023421
09:00−7в51095100 1.1 1024399
12:00−6в599399 0.8 1024443
15:00−5в5894100 1.1 1023428
18:00−6в4996100 0.2 1024356
21:00−6в4996100 0.6 1024320